Weather History for KAPN - November, 2011

Change the Weather History Date:

Thursday, November 10, 2011

  Actual Average Record
Temperature  
Mean Temperature 39 °F 38 °F  
Max Temperature 45 °F 46 °F 67 °F (1931)
Min Temperature 32 °F 30 °F 13 °F (1925)
Degree Days  
Heating Degree Days 26 27  
Month to date heating degree days 221 258  
Since 1 July heating degree days 1010 1202  
Moisture  
Dew Point 31 °F    
Average Humidity 75    
Maximum Humidity 92    
Minimum Humidity 57    
Precipitation  
Precipitation T in 0.07 in 1.12 in (1998)
Month to date precipitation 1.60 0.72  
Year to date precipitation 34.93 25.03  
Snow  
Snow 0.10 in 0.20 in 3.20 in (2006)
Month to date snowfall 0.1 1.4  
Since 1 July snowfall 0.1 1.8  
Snow Depth 0.00 in    
Sea Level Pressure  
Sea Level Pressure 29.75 in    
Wind  
Wind Speed 9 mph (WSW)    
Max Wind Speed 25 mph    
Max Gust Speed 36 mph    
Visibility 10 miles    
Events Rain    
T = Trace of Precipitation, MM = Missing Value Source: NWS Daily Summary

Daily Weather History Graph

Daily Weather History Graph

Search for Another Location

Airport or City:

Trip Planner

Search our weather history database for the weather conditions in past years. The results will help you decide how hot, cold, wet, or windy it might be!

Date:

Astronomy

Nov. 10, 2011 Rise Set
Actual Time 7:24 AM EST 5:10 PM EST
Civil Twilight 6:53 AM EST 5:42 PM EST
Nautical Twilight 6:18 AM EST 6:17 PM EST
Astronomical Twilight 5:43 AM EST 6:51 PM EST
Moon 4:55 PM EST (11/10) 7:18 AM EST (11/10)
Length of Visible Light 10h 48m
Length of Day
9h 45m
Full, 100% of the Moon is Illuminated
Nov 10
Full
Nov 10
Full
Nov 18
Last Quarter
Nov 25
New
Dec 2
First Quarter

Hourly Weather History & Observations

Time (EST) Temp. Windchill Dew Point Humidity Pressure Visibility Wind Dir Wind Speed Gust Speed Precip Events Conditions
12:54 AM 37.9 °F 29.2 °F 30.9 °F 76% 29.57 in 10.0 mi West 15.0 mph 25.3 mph 0.00 in   Overcast
1:54 AM 37.9 °F 28.9 °F 30.9 °F 76% 29.61 in 10.0 mi West 16.1 mph 28.8 mph N/A   Overcast
2:54 AM 37.0 °F 27.7 °F 30.9 °F 79% 29.67 in 10.0 mi WSW 16.1 mph 26.5 mph N/A   Mostly Cloudy
3:06 AM 37.4 °F 28.2 °F 30.2 °F 75% 29.66 in 10.0 mi WSW 16.1 mph 23.0 mph N/A   Mostly Cloudy
3:35 AM 37.4 °F 29.8 °F 30.2 °F 75% 29.67 in 10.0 mi WSW 11.5 mph 17.3 mph 0.00 in   Overcast
3:54 AM 37.9 °F 31.5 °F 30.9 °F 76% 29.69 in 10.0 mi SW 9.2 mph 25.3 mph 0.00 in   Overcast
4:32 AM 37.4 °F 31.4 °F 33.8 °F 87% 29.70 in 10.0 mi SW 8.1 mph 17.3 mph 0.00 in Rain Light Rain
4:44 AM 37.4 °F 30.3 °F 33.8 °F 87% 29.70 in 10.0 mi SW 10.4 mph 17.3 mph 0.00 in   Overcast
4:54 AM 37.0 °F 29.3 °F 33.1 °F 86% 29.72 in 10.0 mi WSW 11.5 mph 19.6 mph 0.00 in   Overcast
5:20 AM 37.4 °F 30.3 °F 33.8 °F 87% 29.71 in 10.0 mi WSW 10.4 mph - N/A   Overcast
5:54 AM 37.0 °F 31.0 °F 33.1 °F 86% 29.73 in 10.0 mi SW 8.1 mph 17.3 mph N/A   Overcast
6:54 AM 37.0 °F 31.0 °F 32.0 °F 82% 29.74 in 10.0 mi SW 8.1 mph 16.1 mph N/A   Overcast
7:54 AM 37.0 °F 30.4 °F 32.0 °F 82% 29.77 in 10.0 mi SW 9.2 mph 16.1 mph N/A   Overcast
8:54 AM 37.9 °F 31.5 °F 32.0 °F 79% 29.78 in 10.0 mi WSW 9.2 mph 16.1 mph N/A   Mostly Cloudy
9:21 AM 37.4 °F 32.8 °F 33.8 °F 87% 29.77 in 10.0 mi WSW 5.8 mph - 0.00 in Rain Light Rain
9:54 AM 37.9 °F 31.5 °F 32.0 °F 79% 29.79 in 10.0 mi WSW 9.2 mph 18.4 mph 0.00 in Rain Light Rain
10:54 AM 41.0 °F 32.8 °F 30.9 °F 67% 29.80 in 10.0 mi WSW 16.1 mph 21.9 mph 0.00 in   Mostly Cloudy
11:19 AM 39.2 °F 34.2 °F 33.8 °F 81% 29.78 in 9.0 mi West 6.9 mph 16.1 mph 0.00 in   Mostly Cloudy
11:54 AM 42.1 °F 38.4 °F 33.1 °F 70% 29.79 in 10.0 mi Variable 5.8 mph - 0.00 in   Scattered Clouds
12:54 PM 42.1 °F 39.2 °F 32.0 °F 67% 29.78 in 10.0 mi WNW 4.6 mph - N/A   Mostly Cloudy
1:54 PM 42.1 °F 36.6 °F 28.0 °F 58% 29.77 in 10.0 mi West 9.2 mph 17.3 mph N/A   Scattered Clouds
2:54 PM 42.1 °F 38.4 °F 30.0 °F 62% 29.77 in 10.0 mi Variable 5.8 mph - N/A   Mostly Cloudy
3:54 PM 42.1 °F 37.7 °F 28.0 °F 58% 29.77 in 10.0 mi West 6.9 mph 17.3 mph 0.00 in Rain Light Rain
4:54 PM 39.0 °F 36.8 °F 30.0 °F 70% 29.79 in 10.0 mi WNW 3.5 mph - 0.00 in   Mostly Cloudy
5:54 PM 37.9 °F 34.4 °F 30.0 °F 73% 29.81 in 10.0 mi West 4.6 mph - N/A   Overcast
6:54 PM 36.0 °F 32.1 °F 30.0 °F 79% 29.80 in 10.0 mi West 4.6 mph - N/A   Partly Cloudy
7:54 PM 34.0 °F 29.8 °F 28.9 °F 82% 29.81 in 10.0 mi West 4.6 mph - N/A   Clear
8:54 PM 33.1 °F 26.9 °F 30.0 °F 89% 29.81 in 10.0 mi West 6.9 mph - N/A   Scattered Clouds
9:07 PM 33.8 °F 29.6 °F 30.2 °F 87% 29.78 in 10.0 mi West 4.6 mph - N/A   Mostly Cloudy
9:17 PM 33.8 °F 27.7 °F 30.2 °F 87% 29.79 in 10.0 mi West 6.9 mph - N/A   Scattered Clouds
9:54 PM 33.1 °F 26.9 °F 30.0 °F 89% 29.81 in 10.0 mi West 6.9 mph - N/A   Partly Cloudy
10:54 PM 32.0 °F 25.6 °F 30.0 °F 92% 29.81 in 10.0 mi WNW 6.9 mph - N/A   Clear
11:54 PM 32.0 °F 26.4 °F 30.0 °F 92% 29.82 in 10.0 mi West 5.8 mph - N/A   Clear